PAGEOS 1 DEB, 2256

Orbit data source: Space-Track

PAGEOS 1 DEB, 2256 is space debris in LEO originally from a launch on Fri, 24 Jun 1966 UTC launched from the Air Force Western Test Range (AFWTR). Debris objects in space refer to the collection of defunct objects orbiting the Earth. Examples of debris include non-operational satellites, rocket bodies, and fragments generated from explosions, collisions, or faulty payload assembly.

Loading next visibility...
Identifier
2256, 1966-056C
Orbit
LEO
Country
Flag of USUS
Related business
Manufacturer
Goodyear
Mission
Spacecraft
Bus & Motor
ECHO CANISTER, Unknown motor
Mass
9 kg wet, 9 kg dry
Launch date (UTC)
1966-06-24 (59 years ago)
Launch vehicle
Unknown
Launch site
Air Force Western Test Range (AFWTR)
Object type
Payload
Rocket body
Debris
Shape & HBR
Unknown
Radar Cross Section
Large (>1 m²)

Expand to show TLE details & history
Last TLE update: 6 days ago

TLE from 6 days ago
0 PAGEOS 1 DEB
1 02256U 66056C   25335.50917955  .00000024  00000-0  21194-1 0  9991
2 02256  86.9338 176.8064 0025950 337.4843  22.4824  7.93548724722797
Epoch: 2025-12-01T12:13Z
TLE epoch observation values (Epoch: 2025-12-01T12:13:13.113Z)
Latitude
0.00004°
Longitude
-77.1059°
Altitude
4,215.905 km
Speed
6.142 km/s
True Right ascension
11h 47m 13s
True Declination
0° 00' 00"
Sunlit
Object was in daylight at epoch
Visualization orbit readout
Latitude
Unknown
Longitude
Unknown
Altitude
Unknown
Speed
Unknown
Apparent Right ascension
Unknown
Apparent Declination
Unknown
Sunlit
N/A
Visualization observer readout
Local Sidereal Time
01:19:42
Azimuth
Unknown
Elevation
Unknown
Doppler factor
Unknown
Orbital elements
Apogee altitude
4,264.791 km
Perigee altitude
4,209.698 km
Semi-major axis
10,615.381 km
Eccentricity
0.0026
Inclination
86.9338°
RAAN
176.8064°
Arg. of periapsis
337.4843°
True anomaly
22.59645°
Mean anomaly
22.4824°
Eccentric anomaly
22.53939°
Mean motion
1.98445 °/min
Orbital period
181.41 mins
BSTAR
0.021194
Loading maneuver chart data...
Computing Atmospheric mass density...

Documentation

Showing up to 5 results
|